Regional Weather Roundup
Issued by NWS Newport/Morehead, NC

Current Version | Previous Version | Text Only | Print | Product List | Glossary On
Versions: 1 2 3 4 5 6 7 8 9 10 11 12 13 14 15 16 17 18 19 20 21 22 23 24 25 26 27 28 29 30 31 32 33 34 35 36 37 38 39 40 41 42 43 44 45 46 47 48 49 50
000 ASUS42 KMHX 181413 RWRMHX WEATHER ROUNDUP FOR EASTERN NORTH CAROLINA NATIONAL WEATHER SERVICE NEWPORT/MOREHEAD CITY NC 900 AM EST SAT NOV 18 2017 NOTE: "FAIR" INDICATES FEW OR NO CLOUDS BELOW 12,000 FEET WITH NO SIGNIFICANT WEATHER AND/OR OBSTRUCTIONS TO VISIBILITY NCZ015>017-031-032-045>047-102-103-181500- NORTH COAST CITY SKY/WX TMP DP RH WIND PRES REMARKS EDENTON MOSUNNY 49 43 79 CALM 30.06S ELIZABETH CITY MOSUNNY 51 44 77 SW10 30.05F KITTY HAWK SUNNY 51 39 65 CALM 30.04F MANTEO MOSUNNY 52 39 62 SW10 30.06F $$ NCZ045>047-081-094-103-104-181500- CENTRAL COAST CITY SKY/WX TMP DP RH WIND PRES REMARKS FRISCO SUNNY 57 50 77 S5 30.07F $$ NCZ095-097-098-100-101-181500- SOUTHERN COAST CITY SKY/WX TMP DP RH WIND PRES REMARKS BEAUFORT SUNNY 56 47 71 CALM 30.08S CEDAR ISLAND NOT AVBL JACKSONVILLE SUNNY 52 48 86 SE3 30.06F PINEY ISLAND NOT AVBL WILMINGTON SUNNY 54 47 77 SE3 30.07F $$ NCZ011>013-027>030-043-044-078>080-089-090>093-098-181500- COASTAL PLAIN CITY SKY/WX TMP DP RH WIND PRES REMARKS AHOSKIE MOSUNNY 44 38 82 S6 30.04F CLINTON SUNNY 46 44 91 CALM 30.06F ELIZABETHTOWN NOT AVBL GOLDSBORO SUNNY 46 39 77 S5 30.03F GREENVILLE MOSUNNY 46 39 76 S3 30.06F HAVELOCK SUNNY 51 47 86 SE3 30.08F KENANSVILLE SUNNY 45 39 81 CALM 30.06F KINSTON CLOUDY 46 39 76 S6 30.06F NEW BERN CLOUDY 48 45 89 SE6 30.07F RICHLANDS SUNNY 50 43 77 S6 30.07F ROCKY MOUNT MOSUNNY 44 41 89 S6 30.04S WASHINGTON MOSUNNY 47 40 75 S3 30.07S WHITEVILLE SUNNY 50 44 79 S3 30.06S $$ AMZ130-135-150-152-154-156-158-170-250-252-270-ANZ085-086-088-633-658-670-181500- MARINE OBSERVATIONS STATION/POSITION TIME TEMP WIND PRES WAVE SWELL AIR SEA DIR/SP/G HT/PER HT/PER (UTC) (F) (DEG/KT/KT) (MB) (FT/S) (FT/S) CHESAPEAKE LIGHT NOT AVBL 64 E VA BEACH 1350 56 60 210/ 16/ 21 1017.0 3/ 4 2/10 DUCK NOT AVBL 2 E DUCK 1400 59 N/A 2/11 2/11 OREGON INLET NOT AVBL 13E OREGON INLT 1348 60 N/A 3/11 2/11 HATTERAS CG NOT AVBL DIAMOND BUOY 1400 60 10/ 4/ 6 1018.3 CAPE LOOKOUT 1400 61 300/ 2/ 3 1018.5 BEAUFORT LAB NOT AVBL 30 SE NEW RVR IN 1308 61 70 100/ 4/ 6 1018.5 30 SE NEW RVR IN 1400 70 N/A 3/10 2/11 27 SE WRIGHTSVLE 1308 63 67 130/ 2/ 6 1018.1 5 SE WRIGHTSVLE 1308 59 64 140/ 2/ 6 1018.4 225 S CAPE HAT 1350 69 77 70/ 4/ 6 1019.4 6/ 8 7/ 8 41 SE CHARLESTON 1400 71 130/ 12/ 16 1017.2 $$

USA.gov is the U.S. government's official web portal to all federal, state and local government web resources and services.